GFSSGP_sfc_wetblb_132.txt.gz
Wetbulb
63.38 60.77 62.13 61.81 55.58 53.90 49.85 49.76 53.32 52.99 54.11 57.82 57.76 55.99 55.92 57.66 54.88 52.39 66.07 68.51 69.31 68.90 70.23 71.40 71.35 71.56 71.15 71.14 70.59 69.94 69.48 67.94 67.56 67.30 67.57 67.49 67.05 67.14 67.03 67.26 68.00 67.49 68.81 68.59 66.69 65.82 65.50 65.51 65.58
60.32 59.18 62.22 58.83 52.53 48.59 50.41 51.32 50.86 54.74 57.88 59.73 58.78 58.18 57.24 56.15 61.55 62.16 63.93 67.89 69.29 69.29 70.39 71.01 70.38 71.44 70.78 70.55 70.50 69.87 69.37 68.67 67.13 67.35 67.87 67.90 67.03 67.29 66.95 66.87 67.75 67.55 67.42 66.80 66.13 65.63 65.70 65.53 65.18
59.10 58.92 59.41 56.37 52.55 48.20 49.34 51.03 53.14 56.79 58.60 58.34 57.96 59.86 58.58 58.30 62.53 63.34 67.32 68.96 69.13 69.67 70.52 70.97 70.29 70.99 70.43 70.34 70.30 69.87 69.36 68.68 66.83 66.75 67.31 67.63 66.93 67.31 66.73 66.82 67.35 67.45 67.62 66.25 66.03 65.76 65.79 65.43 65.21
59.67 60.25 57.41 52.08 49.26 49.92 50.54 53.21 54.97 56.77 56.92 58.11 59.20 56.43 60.47 63.77 63.57 66.46 68.70 69.05 68.85 69.52 70.52 69.82 70.52 70.71 70.49 70.26 69.88 69.26 68.65 67.59 67.28 66.92 66.95 66.47 66.60 66.22 65.68 66.53 66.99 66.73 66.51 66.30 65.78 65.40 65.50 65.29 64.88
60.52 58.40 53.87 50.85 49.63 50.01 51.02 54.60 57.17 56.46 56.00 57.26 58.24 55.21 58.18 63.45 65.88 67.87 68.02 68.54 68.37 69.00 69.95 70.47 70.13 70.65 70.89 70.22 69.89 69.87 68.83 67.63 67.10 66.57 66.66 65.87 66.12 65.35 65.15 66.06 66.42 65.91 65.86 66.32 65.95 65.14 64.87 64.23 64.02
57.96 56.67 51.43 48.99 50.37 50.33 52.02 56.26 57.36 56.20 56.26 57.51 57.12 56.62 58.62 64.49 65.62 66.73 68.18 68.59 68.99 67.92 68.71 69.62 67.60 68.95 69.93 70.25 69.73 69.42 68.95 68.35 67.36 66.68 66.76 66.20 66.14 65.38 64.70 65.04 65.57 65.06 65.63 65.52 65.46 65.26 64.45 63.80 63.73
55.80 55.03 50.87 50.42 50.60 49.69 52.41 56.98 55.72 55.75 55.85 56.46 59.42 55.40 59.53 63.11 65.94 66.80 68.22 68.61 67.97 67.36 67.52 68.48 69.39 68.66 66.91 67.86 68.23 68.48 68.50 67.87 67.46 67.29 66.56 66.11 65.89 65.16 64.84 64.55 65.23 65.10 65.37 65.14 64.90 64.58 64.15 63.82 63.28
56.47 55.27 49.23 50.18 49.63 49.89 53.21 55.42 55.50 56.08 55.36 59.20 60.78 55.24 55.06 63.34 65.05 66.29 67.37 67.37 66.74 66.58 66.87 67.30 68.22 68.95 69.12 69.14 65.16 66.01 66.65 66.63 66.43 65.71 64.32 63.45 63.24 63.40 64.01 63.92 65.25 65.01 64.89 64.62 64.20 64.05 63.93 63.73 62.84
54.60 51.87 49.22 50.28 48.84 50.30 51.79 53.57 54.80 57.05 57.18 58.39 59.89 58.75 60.26 65.34 64.95 64.57 64.60 64.99 65.31 65.32 66.10 67.10 67.70 68.37 68.76 68.51 66.10 64.10 64.27 64.42 63.90 63.12 61.30 61.99 64.63 64.65 63.92 62.68 64.25 64.74 64.45 63.70 63.37 63.10 62.89 62.98 62.10
53.58 50.43 50.23 52.75 52.35 51.15 52.05 52.57 54.31 55.18 55.97 56.90 58.14 60.91 61.75 65.04 63.29 61.88 61.78 61.85 62.82 63.55 64.92 66.24 67.08 67.58 68.14 67.64 67.98 67.52 66.49 66.06 65.26 65.17 64.70 64.85 64.75 64.67 63.57 61.35 61.85 63.13 63.33 63.51 63.08 62.25 60.80 61.11 63.57
51.56 49.03 52.22 51.76 51.50 51.13 51.54 51.58 55.39 54.49 53.67 56.85 57.15 59.23 61.30 62.93 62.96 62.09 61.65 62.86 63.17 63.91 64.77 65.76 66.39 67.27 67.38 67.28 67.38 67.15 66.66 65.92 65.23 65.17 65.07 64.84 64.50 64.17 63.67 63.28 62.30 62.94 59.56 63.16 62.79 62.53 63.51 62.79 64.11
49.72 51.45 52.03 52.21 50.00 50.66 51.04 52.84 52.51 54.94 55.49 56.70 58.87 60.14 61.60 61.91 61.40 61.58 61.53 61.68 63.90 64.19 64.40 65.44 66.52 66.56 67.15 67.26 67.00 66.90 65.91 65.57 64.64 64.52 64.28 63.72 63.35 63.34 62.89 62.34 62.26 62.63 62.86 63.00 63.23 63.43 63.48 63.24 63.19
51.28 51.85 51.90 52.91 52.36 52.35 50.22 51.06 52.34 52.61 57.30 55.55 55.83 59.14 60.68 61.77 62.33 62.80 62.95 62.71 63.85 64.23 64.34 64.79 65.99 66.06 66.59 66.86 66.80 66.53 65.72 65.07 64.71 64.01 63.86 63.41 62.54 62.18 62.16 62.01 61.87 61.74 62.62 62.92 62.96 62.87 62.92 62.98 62.65
52.04 51.50 52.69 52.32 50.95 50.06 49.03 51.01 49.01 52.10 53.88 54.84 56.66 58.06 60.27 61.28 62.08 62.04 61.48 62.16 64.40 64.69 64.73 64.81 65.03 66.06 66.15 66.06 66.20 66.07 66.08 65.43 64.55 63.59 63.33 63.27 63.35 62.47 61.69 61.51 61.42 61.53 62.43 63.20 63.51 62.98 62.97 63.05 62.93
51.90 49.19 51.09 52.12 53.24 51.49 49.39 48.42 47.66 53.88 52.24 52.74 55.63 57.85 59.43 60.95 62.24 62.10 62.88 63.82 64.75 65.01 65.44 64.25 64.39 65.80 65.46 65.54 65.87 66.08 65.97 65.22 64.25 63.47 63.26 63.41 63.16 62.37 61.33 61.12 61.00 61.42 62.63 63.21 63.41 63.30 63.31 62.87 61.99
49.83 49.72 46.21 51.39 50.51 51.61 50.72 47.82 53.95 54.26 52.27 52.84 53.75 55.74 58.03 59.71 61.26 62.58 63.43 64.08 65.43 65.68 65.17 65.34 64.30 64.29 65.43 65.30 65.64 65.72 65.79 65.18 64.63 63.91 63.44 63.59 63.55 62.92 61.38 60.65 61.09 62.31 62.85 63.06 62.91 62.88 62.39 62.21 61.18
45.25 44.03 44.60 47.30 49.76 48.78 48.33 49.09 54.80 53.57 50.93 51.87 54.00 54.39 55.65 57.45 59.89 61.75 63.20 64.03 64.88 65.31 65.34 65.01 65.20 64.54 64.81 65.64 65.51 65.43 65.41 65.19 64.82 64.30 63.59 63.57 63.62 63.44 62.64 61.96 61.97 62.72 62.55 62.61 62.64 62.35 62.22 61.45 61.14
41.98 41.72 42.73 44.23 48.21 46.89 47.93 47.12 52.04 51.12 50.30 52.08 53.67 53.82 53.94 55.64 57.49 60.46 62.27 63.38 64.31 65.10 65.58 65.69 65.31 65.20 65.13 65.36 65.31 65.00 64.59 64.60 64.93 64.38 63.77 63.40 63.34 63.50 63.15 62.86 62.55 62.38 62.08 62.03 62.27 61.87 62.28 61.93 60.89
44.54 42.04 40.97 42.77 47.66 45.41 46.44 46.78 48.99 51.85 51.96 51.20 52.77 53.35 53.40 53.90 56.98 59.16 60.86 62.54 63.21 64.10 64.58 65.04 65.09 65.13 64.95 64.21 63.30 62.35 61.72 63.27 63.58 64.04 64.02 63.64 63.28 63.11 63.12 62.98 62.76 62.61 61.72 61.77 62.05 61.94 61.32 60.71 59.91
43.42 41.32 39.44 43.34 45.47 44.00 45.98 45.63 49.03 50.59 50.56 51.82 52.72 53.66 53.93 54.22 55.13 55.70 57.91 60.28 61.64 62.71 63.54 64.16 64.71 65.28 64.91 64.54 64.04 63.74 63.51 64.15 64.35 64.19 63.80 63.68 63.28 63.12 62.95 62.99 62.73 62.65 61.81 61.54 61.54 61.19 60.21 59.98 59.04
42.68 40.06 39.70 39.75 43.00 45.22 44.00 43.60 46.35 49.95 50.47 51.61 52.85 53.98 55.21 55.94 56.06 57.15 56.85 57.83 60.39 61.25 62.60 63.40 63.99 64.79 65.16 64.73 64.53 63.83 64.10 63.62 62.69 63.26 62.75 62.85 62.83 62.81 62.92 62.67 62.95 62.59 62.13 61.17 61.23 61.26 60.52 58.49 59.42
39.91 44.84 43.85 42.04 38.69 35.53 43.55 35.14 44.28 47.06 47.00 47.88 49.61 51.69 52.71 54.07 56.10 57.04 57.81 57.51 58.88 60.93 62.70 63.44 64.11 64.31 64.98 65.12 63.95 62.84 61.83 60.56 62.69 63.42 63.34 63.26 62.68 62.29 62.43 62.31 62.38 62.39 62.28 61.32 61.70 61.40 61.08 60.40 57.75
42.62 45.86 44.16 42.71 40.05 39.22 39.89 36.07 41.16 45.94 44.40 47.31 50.29 51.61 51.99 52.85 53.30 53.65 55.18 57.15 58.10 60.68 61.85 62.89 63.39 63.78 64.46 64.99 64.62 63.59 62.50 63.79 64.08 64.02 63.66 63.21 63.27 62.55 62.27 62.10 62.12 61.77 62.15 61.56 61.21 60.82 60.57 60.92 59.94
46.36 44.08 43.19 42.83 40.64 33.56 38.66 37.92 39.05 42.98 45.17 47.81 50.29 51.59 52.40 52.75 53.47 54.27 55.31 55.95 56.12 58.23 60.51 61.85 62.15 62.58 63.55 63.99 64.28 63.92 62.81 62.91 63.27 63.46 62.71 62.54 62.99 62.63 62.41 62.10 61.96 61.85 61.52 61.10 61.16 61.45 60.85 60.61 60.45
44.38 41.00 33.36 32.03 31.66 30.46 37.18 37.39 40.53 46.14 47.23 47.47 48.88 50.98 52.36 52.96 53.06 53.71 54.18 54.50 54.59 55.39 57.50 59.72 60.86 60.95 62.42 62.93 63.49 63.93 64.17 63.36 62.82 63.19 63.02 62.29 62.10 61.74 61.72 61.72 61.28 61.44 61.69 61.41 61.31 61.02 60.71 60.52 60.25
41.41 40.40 33.58 26.15 28.34 32.80 35.25 33.62 40.34 47.29 49.63 50.58 50.30 50.31 50.46 51.03 51.82 51.91 53.15 54.17 54.94 55.00 55.94 58.09 58.83 59.59 61.09 61.71 62.39 63.57 63.92 64.11 63.98 63.85 63.75 62.87 62.86 62.43 62.51 61.81 61.59 61.55 61.41 61.09 60.97 60.90 60.75 60.71 60.81
40.15 36.52 42.29 33.08 26.79 31.04 36.07 39.63 43.23 45.45 45.67 46.24 46.85 48.32 49.57 51.04 51.71 51.12 52.23 53.09 54.07 54.49 54.69 56.10 57.84 58.83 60.06 60.83 61.90 62.45 63.26 63.34 63.38 63.54 63.90 63.47 63.21 62.49 62.42 62.04 61.36 61.61 61.43 61.04 60.76 60.66 60.09 59.72 59.19
42.93 43.45 34.43 33.78 29.05 27.05 34.19 35.14 37.77 41.20 43.02 46.01 46.47 47.17 48.69 50.19 49.80 50.56 51.05 51.62 52.72 53.55 54.31 55.19 57.05 57.91 59.44 60.48 61.04 61.41 62.08 62.65 63.06 63.26 62.84 62.65 62.88 62.46 61.18 61.33 61.19 61.14 61.07 60.84 60.45 59.89 58.73 57.54 57.36
38.94 37.90 37.63 38.23 35.14 30.47 28.91 35.42 44.58 44.84 46.34 45.69 45.99 46.33 46.89 46.72 47.66 48.47 49.35 50.44 50.33 50.83 50.26 52.02 54.83 57.01 58.37 59.57 60.39 60.90 61.41 61.61 62.10 62.30 62.40 62.30 62.23 61.83 61.04 60.56 60.47 60.43 60.31 60.30 59.09 57.67 57.29 56.30 56.46
43.09 39.55 39.29 33.12 31.47 33.69 32.70 33.75 44.93 45.67 45.24 43.45 45.70 46.80 45.75 44.79 45.47 47.39 48.34 48.18 48.84 48.53 48.23 48.58 52.91 55.71 57.86 59.32 59.79 60.29 60.63 60.89 60.75 60.93 61.44 61.71 61.06 61.53 60.31 60.09 59.57 59.51 59.26 59.27 58.20 57.03 56.34 56.07 55.31

GFSSGP_sfc_wetblb_135.txt.gz
Wetbulb
65.32 63.98 63.18 62.59 55.57 55.10 51.49 51.94 55.31 53.87 54.46 58.37 58.98 57.03 56.74 58.50 55.97 54.03 67.38 68.95 69.44 69.27 70.57 70.92 71.15 71.47 70.55 69.72 69.33 69.63 68.56 67.67 67.63 67.51 67.49 67.51 67.90 67.40 68.46 68.10 68.28 68.61 67.62 66.61 65.77 66.06 65.76 65.61 65.16
62.07 62.40 62.36 60.13 52.43 49.59 51.41 53.70 52.37 55.72 59.11 59.86 58.84 58.37 57.38 57.53 62.52 62.70 64.91 68.88 69.67 69.35 70.07 70.50 70.32 71.40 70.34 69.76 69.69 69.44 68.41 67.73 67.67 67.58 68.22 67.54 67.73 67.38 68.08 67.91 68.04 67.70 67.27 66.03 65.85 66.44 65.67 65.14 65.03
62.89 61.52 59.81 56.35 53.18 49.71 50.86 53.08 54.96 58.12 59.71 59.19 58.13 60.66 59.67 59.55 63.63 64.75 68.04 69.36 69.50 69.29 70.29 70.17 70.37 71.03 70.17 69.79 69.71 69.13 68.51 67.14 66.88 67.21 67.94 67.40 67.50 66.91 67.71 67.86 68.02 67.08 65.97 66.04 66.34 66.29 65.15 64.83 65.55
61.76 62.24 60.40 53.07 50.59 53.06 52.94 54.65 56.60 57.55 58.17 59.67 59.80 56.71 61.27 64.72 64.40 67.31 68.59 69.33 69.07 68.82 69.92 69.63 70.59 70.55 69.99 69.90 69.35 68.77 68.22 67.36 67.49 67.52 67.28 67.39 66.78 66.65 67.02 67.16 67.30 66.97 66.49 66.18 65.71 65.05 65.33 64.76 64.31
62.95 59.90 54.34 52.64 52.23 52.78 53.02 55.88 57.86 57.01 57.53 58.30 59.19 55.71 58.47 64.60 67.27 68.38 67.96 68.65 68.44 68.21 69.67 70.27 70.06 70.41 70.41 70.14 69.39 69.28 68.31 67.88 67.25 67.16 66.74 66.86 65.43 64.96 66.45 66.91 66.55 66.26 66.61 65.62 65.43 65.07 64.38 64.12 63.99
58.18 58.77 51.23 50.33 52.54 53.27 53.09 56.91 57.85 57.60 57.62 58.51 57.61 56.93 59.26 66.10 66.78 67.17 68.31 67.83 68.50 68.50 69.14 69.71 67.74 69.09 69.68 69.65 69.52 69.29 68.76 68.27 67.64 67.17 66.40 65.89 65.38 64.86 65.09 65.98 65.14 65.37 66.16 66.01 65.22 64.46 63.98 63.87 63.78
56.34 54.80 51.65 52.15 52.31 53.00 53.50 58.10 56.91 56.93 56.87 57.01 59.89 54.78 60.69 64.00 67.19 67.41 67.82 68.37 68.18 68.56 68.07 68.96 69.38 68.50 67.31 68.07 68.09 68.38 68.29 67.92 67.69 67.39 66.25 65.89 65.97 65.20 65.04 65.51 65.01 65.57 65.26 64.92 64.68 64.39 63.98 63.64 63.26
57.14 55.34 51.71 52.32 51.33 51.82 55.33 57.03 57.85 57.18 56.21 60.92 61.41 54.99 55.95 63.70 67.02 67.24 67.45 67.71 68.05 67.23 67.03 67.15 68.07 68.88 68.72 68.93 65.26 66.16 66.68 66.66 66.66 65.90 64.59 63.78 63.87 63.96 63.88 64.28 65.38 65.17 65.01 64.68 64.43 64.03 63.85 63.37 62.56
57.87 51.43 49.83 51.58 51.87 53.16 54.63 55.22 57.14 59.23 57.93 59.31 60.75 59.87 61.77 66.28 66.12 65.26 64.85 65.06 66.30 66.03 66.00 66.41 66.79 67.44 67.71 67.71 66.22 64.24 64.41 64.69 64.21 63.24 61.84 61.46 63.77 63.27 62.78 62.93 64.58 65.25 64.79 63.75 63.32 63.28 63.30 63.29 61.91
53.90 50.95 51.53 55.08 55.65 54.17 53.99 54.43 55.97 55.91 56.27 57.52 59.21 61.85 63.24 65.23 63.76 62.93 62.49 62.47 64.01 64.97 65.25 65.89 66.58 66.85 67.75 66.57 67.18 67.06 66.06 65.58 64.58 64.16 63.51 64.06 64.28 64.27 63.82 61.80 62.61 63.86 63.68 63.57 62.89 62.44 61.87 61.06 62.86
53.97 50.31 53.83 54.38 55.11 54.03 54.11 53.47 55.40 54.69 53.24 56.50 57.37 60.38 62.06 63.64 62.41 61.96 62.17 63.21 64.67 65.81 65.44 65.45 66.16 66.85 67.07 66.03 66.33 66.02 65.51 65.77 64.96 64.67 64.28 64.56 64.13 64.07 63.66 63.18 62.46 62.92 60.45 62.73 62.56 61.78 62.58 62.93 63.11
50.84 53.41 53.53 53.96 52.00 52.16 52.51 55.44 53.80 55.22 55.71 58.35 59.61 60.97 62.30 63.04 62.31 62.07 62.22 62.70 64.93 65.39 65.36 65.41 65.97 66.14 66.70 66.89 66.28 65.83 65.00 65.47 64.99 64.35 64.43 64.01 63.59 63.25 62.75 62.40 61.99 63.50 62.58 62.99 63.27 63.04 63.04 62.99 62.83
51.95 53.29 54.11 54.60 53.03 53.36 53.15 52.13 53.48 54.95 57.92 57.58 57.22 59.94 61.42 62.37 63.03 63.92 64.28 64.45 65.07 65.09 65.57 65.70 66.13 66.05 66.31 66.37 66.22 65.79 65.15 65.55 65.37 64.19 64.13 63.54 63.01 63.05 62.80 62.49 62.18 62.27 62.52 62.63 62.69 62.59 62.55 62.69 62.57
54.31 54.14 54.19 54.36 53.77 53.31 51.24 52.58 51.46 54.29 57.20 57.38 57.30 58.02 60.17 61.52 62.63 63.45 63.76 63.54 63.12 65.17 65.64 66.20 65.78 66.05 66.22 66.36 66.28 66.24 66.03 65.90 65.55 64.43 63.49 63.32 62.86 62.41 62.07 61.84 61.69 61.65 62.14 62.65 62.89 62.57 62.25 61.92 62.04
53.65 50.23 52.42 53.24 53.72 52.89 52.62 50.13 50.68 54.52 53.94 54.13 55.66 57.58 58.88 60.47 62.35 62.62 63.72 63.45 64.04 65.16 66.03 65.96 65.48 65.88 65.84 65.71 66.27 66.17 66.10 65.75 65.39 64.56 63.72 62.95 62.91 62.79 61.88 61.55 61.45 61.77 62.39 62.80 63.03 62.99 62.76 61.80 61.31
49.92 50.37 46.28 52.31 53.51 53.59 52.53 45.64 53.75 56.21 54.97 53.73 54.98 56.57 57.93 59.43 61.28 62.98 64.02 64.04 64.59 65.48 65.39 66.33 65.96 65.40 65.78 65.82 66.15 65.99 66.16 65.71 65.24 64.65 64.14 63.27 62.93 62.91 62.13 61.36 61.22 61.93 62.15 62.49 62.40 62.24 61.33 60.56 60.59
48.43 43.61 45.61 48.35 53.58 52.24 50.69 47.40 52.68 57.13 56.47 54.71 55.14 56.74 57.10 58.02 60.22 62.10 63.44 64.28 64.81 65.38 65.47 65.70 66.23 65.17 65.48 66.41 66.30 66.21 65.57 65.54 65.45 65.16 64.40 63.58 63.29 63.21 62.38 61.71 61.71 62.20 62.43 62.49 62.41 62.09 61.81 59.84 59.82
43.17 43.63 45.91 46.54 50.23 50.69 48.99 48.55 51.88 54.33 53.50 54.63 56.04 57.31 57.79 57.49 57.73 60.66 62.26 63.74 64.56 65.25 65.60 65.70 66.24 65.94 65.69 65.98 66.25 66.25 65.59 65.35 65.61 65.12 64.54 63.66 63.73 63.51 63.19 63.00 62.80 62.63 62.24 61.95 62.18 61.85 62.07 60.55 59.79
45.45 42.66 44.35 47.78 48.89 46.64 47.64 48.54 50.72 53.12 53.14 53.00 54.03 55.90 56.86 57.15 58.31 59.67 60.81 62.61 63.80 64.64 64.90 65.11 65.15 66.03 65.89 65.32 64.84 64.29 63.60 64.14 64.67 65.43 64.95 63.88 63.58 63.41 63.21 63.16 62.67 62.67 61.65 61.59 62.03 61.76 60.81 59.33 60.61
42.02 40.61 41.45 45.83 47.02 46.03 46.63 46.53 50.16 52.07 52.65 53.29 53.07 53.37 54.38 56.93 58.07 58.37 58.89 61.07 62.38 63.14 64.10 64.66 65.17 65.64 65.80 66.05 65.85 65.22 64.54 65.01 65.07 65.30 65.14 64.79 63.91 63.50 62.93 63.02 62.56 62.53 61.92 61.65 61.77 61.45 59.84 58.92 59.84
40.06 39.98 40.07 40.93 45.01 47.02 45.12 43.73 46.88 50.98 52.79 53.59 54.32 54.88 54.50 54.66 56.28 58.13 58.31 58.31 61.15 62.05 63.40 64.17 64.97 65.71 66.08 66.23 66.00 65.13 64.84 64.38 63.68 64.01 63.79 64.39 64.58 63.91 63.32 63.08 63.01 62.76 62.64 61.60 61.64 61.49 60.39 57.41 59.08
37.90 45.02 43.69 41.92 40.38 36.71 44.18 34.76 44.62 48.17 50.06 52.34 52.89 53.31 54.09 55.29 55.53 56.42 59.21 59.91 59.42 61.62 63.55 64.08 64.66 65.29 65.88 66.53 65.05 64.06 62.76 62.01 63.42 64.15 64.73 64.58 64.78 64.32 63.55 63.33 63.05 63.06 63.01 62.04 61.79 61.77 61.13 60.33 57.15
41.57 46.27 44.40 43.57 40.09 39.51 40.56 36.62 42.03 46.97 45.69 48.68 51.26 52.91 54.03 54.54 55.53 55.82 56.81 58.52 60.51 62.14 62.00 63.65 64.20 64.70 65.41 65.82 65.51 64.57 63.57 63.80 64.28 64.04 64.23 64.37 64.60 64.35 63.72 63.44 63.07 62.52 62.87 62.61 62.02 61.42 61.06 60.85 59.81
46.51 43.84 43.13 43.33 40.59 34.36 38.60 38.85 40.16 43.68 46.24 48.81 51.47 53.06 54.13 54.99 55.67 55.78 56.47 57.14 57.26 59.68 61.98 63.40 63.42 63.72 64.90 65.24 65.60 64.70 64.06 63.76 63.37 63.57 63.70 64.23 64.31 64.24 63.56 63.26 62.98 62.84 62.57 62.33 62.11 61.81 61.38 60.60 60.45
44.45 40.43 33.01 32.05 32.16 31.03 40.59 38.21 41.27 46.56 48.96 49.81 50.49 51.47 53.02 53.85 54.00 54.38 54.69 55.62 56.82 57.71 58.80 60.02 61.94 62.10 63.63 64.37 64.67 65.03 64.69 64.45 63.45 63.77 63.82 63.92 63.64 63.42 63.37 63.15 62.58 62.39 62.64 62.52 62.32 61.58 61.05 60.88 59.99
41.41 40.89 33.66 26.94 29.18 33.28 37.46 34.16 40.61 48.20 50.16 51.25 51.59 52.49 52.87 52.44 53.54 53.80 54.15 54.80 55.85 57.30 58.08 58.35 58.77 60.26 62.08 63.14 63.75 64.60 65.12 64.90 64.40 63.87 64.22 64.21 63.90 63.68 64.22 63.40 63.17 62.73 62.65 62.45 62.17 61.60 61.27 61.10 60.59
40.69 37.39 42.49 35.56 31.31 32.08 36.87 40.67 45.17 47.21 47.52 48.06 48.50 49.60 50.60 51.71 51.17 51.36 52.27 52.93 53.91 54.97 56.99 57.73 58.16 59.58 60.72 61.86 62.96 63.48 64.14 64.36 64.19 64.49 64.42 64.42 64.59 63.98 63.82 63.21 62.53 62.48 62.26 62.02 61.80 60.91 60.58 60.31 59.94
43.50 45.02 35.01 35.86 28.26 26.54 33.84 36.28 37.97 43.21 44.65 46.72 47.42 48.25 49.37 49.40 49.53 50.37 51.42 51.83 52.87 53.36 54.69 56.01 56.95 57.59 59.85 60.75 61.65 62.08 62.82 63.63 64.09 64.37 63.79 63.94 64.43 63.95 63.13 62.87 62.46 62.21 62.15 62.13 61.49 60.33 60.29 59.32 58.73
38.94 38.16 38.81 37.87 35.16 30.29 29.46 35.55 44.39 45.57 46.90 45.83 46.27 47.70 48.03 47.09 47.67 49.15 50.78 51.83 51.64 52.48 52.19 52.04 53.65 55.31 57.21 59.09 60.53 61.23 61.72 62.53 63.19 63.37 63.63 63.74 63.85 63.48 62.78 62.06 62.06 61.62 61.40 61.31 60.37 59.65 59.08 58.04 57.58
43.04 39.88 39.15 32.76 31.79 34.76 33.29 35.12 46.97 47.11 47.54 45.86 46.66 47.84 47.22 46.60 47.90 48.96 49.98 51.20 51.64 51.11 51.40 50.31 50.97 52.57 55.51 58.02 59.23 59.87 60.89 61.29 61.59 61.88 62.64 63.30 62.92 63.14 62.72 62.08 61.05 60.88 60.67 60.68 59.64 58.39 56.63 56.27 55.39

GFSSGP_sfc_wetblb_138.txt.gz
Wetbulb
64.48 61.69 62.05 59.16 51.86 51.78 48.19 48.86 52.69 51.99 52.52 55.20 56.88 55.29 53.81 56.49 55.13 53.40 65.44 67.35 67.85 68.54 69.76 70.61 71.47 71.32 70.12 70.30 69.97 69.49 68.85 67.86 67.67 67.55 67.48 67.15 67.75 68.98 67.96 68.51 68.81 67.56 66.64 66.26 66.98 66.40 65.32 65.41 65.42
62.99 61.93 60.28 57.15 48.77 45.45 47.22 50.96 51.42 55.01 56.60 56.98 56.59 55.87 54.31 55.23 61.86 61.58 63.28 67.85 68.11 68.74 69.26 69.60 70.50 71.03 70.22 70.08 69.61 69.15 67.97 67.89 67.67 67.54 67.31 67.40 66.71 68.80 67.92 68.93 68.64 66.86 66.21 66.25 66.40 65.53 65.18 65.37 65.20
63.80 62.16 55.45 53.68 49.84 46.34 47.59 51.08 53.90 56.42 57.25 56.67 55.88 57.32 57.27 57.85 62.24 62.43 66.58 67.73 67.95 67.51 69.62 69.43 70.43 70.80 70.24 69.98 69.64 68.87 67.58 67.41 68.04 68.05 67.37 67.68 66.46 68.41 68.17 68.20 68.29 66.32 65.96 66.34 66.05 65.03 64.87 65.62 65.54
60.16 59.42 57.66 49.48 47.98 50.81 50.22 52.53 56.07 55.39 55.92 58.16 57.11 55.13 59.69 62.22 63.22 65.29 67.30 67.61 66.66 68.88 69.22 69.43 70.59 70.76 70.19 69.93 69.44 68.89 68.52 67.73 67.77 68.04 67.49 67.43 66.46 67.78 68.11 67.97 67.61 66.62 65.77 65.75 65.35 65.57 64.99 64.46 64.23
59.70 57.25 50.16 49.86 50.64 51.56 50.93 54.02 56.19 54.68 54.85 56.01 56.07 53.60 56.89 63.00 66.49 66.58 66.24 67.06 66.79 68.21 68.88 69.31 70.06 70.32 70.27 69.99 69.62 69.06 68.47 67.78 67.73 67.11 67.20 65.91 65.34 66.38 67.37 66.84 66.53 66.55 65.73 65.38 65.38 64.70 64.45 64.44 64.05
54.70 55.94 47.49 46.51 50.85 51.82 50.98 53.82 54.91 55.30 55.76 55.95 53.86 53.05 57.56 63.89 64.89 65.97 66.48 66.39 67.44 67.91 68.71 68.59 67.46 68.73 69.47 69.57 69.48 68.86 68.58 68.40 67.63 67.03 66.37 65.66 64.64 65.41 66.61 65.23 64.87 66.62 66.24 65.29 64.92 64.35 64.15 63.96 63.35
53.23 51.79 48.22 49.22 49.87 51.21 52.53 55.12 52.60 54.24 54.80 55.37 56.43 50.58 58.29 61.72 65.09 66.44 66.88 67.14 67.47 67.62 67.75 67.79 67.99 67.92 66.70 67.61 67.84 68.08 68.13 67.78 67.83 67.34 65.50 66.43 65.48 65.20 65.91 65.84 65.76 65.68 65.53 65.38 64.78 64.18 63.65 63.58 62.71
53.66 52.44 48.49 49.05 48.25 49.50 53.73 54.62 55.24 54.04 54.04 58.57 57.35 51.15 53.84 61.30 65.04 65.86 66.19 66.30 66.25 65.62 65.65 66.53 66.92 67.57 67.53 66.78 65.05 65.74 66.46 66.55 66.44 65.57 64.59 63.69 63.98 63.54 63.53 64.01 64.14 65.20 64.92 64.62 64.39 63.99 63.79 63.23 62.00
56.46 47.45 45.94 48.83 49.88 50.50 53.97 52.41 54.68 55.54 54.77 55.67 57.87 56.94 60.18 64.57 64.83 63.52 64.12 64.70 65.18 64.02 63.84 63.94 65.48 66.21 67.13 66.71 64.42 63.70 64.25 64.38 64.16 62.88 61.57 60.70 61.01 60.66 60.69 62.17 63.25 65.60 65.12 64.19 63.78 63.64 64.06 63.11 61.71
51.05 46.88 48.69 53.04 52.79 51.62 51.98 51.49 53.44 52.55 53.05 53.97 55.87 58.81 63.09 63.39 62.52 61.30 61.06 61.74 63.03 61.99 62.23 62.66 63.30 63.97 66.06 67.21 65.49 64.86 64.45 63.24 62.42 61.54 60.20 60.95 60.75 60.88 62.15 60.76 62.46 63.76 63.33 63.88 63.23 63.13 62.67 61.20 59.12
51.93 46.93 51.91 52.62 52.21 52.14 51.94 50.60 53.03 51.16 49.95 53.38 54.60 57.60 61.39 61.23 61.10 61.11 60.99 61.47 62.56 62.70 62.55 62.53 63.04 63.55 65.01 65.79 65.78 64.09 64.03 62.53 61.48 60.93 60.57 60.60 61.93 60.34 60.43 59.85 59.79 59.62 59.62 60.29 61.46 60.26 59.24 58.95 59.72
49.24 52.10 52.38 53.07 51.37 50.72 50.52 52.83 51.97 51.42 51.78 54.94 55.87 59.70 60.58 60.31 60.21 60.24 60.66 62.06 62.03 63.73 62.89 62.51 63.02 63.09 64.49 64.97 65.09 63.91 63.99 63.74 61.57 61.14 61.15 60.44 59.95 59.80 59.15 59.16 58.76 58.96 58.49 58.76 58.93 59.07 59.37 59.49 60.00
50.35 51.58 53.19 53.27 51.86 50.78 52.76 49.97 49.93 51.30 54.70 54.85 55.32 58.73 58.94 61.00 60.54 61.18 61.61 61.84 62.22 62.31 62.72 62.22 62.40 62.45 63.41 63.90 64.29 64.57 64.07 63.44 62.55 61.06 61.41 60.82 59.89 59.38 59.15 58.78 58.25 58.59 58.79 58.47 58.74 58.80 59.17 59.19 59.70
52.64 52.49 52.68 53.26 52.34 52.09 50.16 49.55 50.53 49.97 53.39 53.51 54.29 54.20 57.32 58.98 61.05 61.48 61.78 61.54 61.76 62.67 62.71 63.18 62.67 62.79 63.46 63.61 63.54 64.26 64.23 63.81 62.34 60.89 60.73 60.71 59.80 59.24 59.04 58.40 58.07 57.87 58.06 58.47 58.84 58.57 58.42 58.83 59.77
52.09 48.53 50.56 51.17 51.98 50.90 50.76 47.04 47.67 52.28 52.99 51.19 52.81 53.84 55.40 57.52 59.53 60.58 61.59 61.62 62.20 62.59 63.17 63.21 63.32 63.47 63.02 63.55 64.28 64.12 64.00 63.83 62.40 61.62 60.69 60.37 59.92 58.81 58.10 57.88 57.68 57.79 58.02 58.28 58.73 58.95 58.83 59.27 59.72
48.43 48.02 43.35 49.77 51.21 51.89 49.68 42.86 49.54 52.74 51.53 49.94 50.49 51.31 53.48 55.70 58.08 59.52 61.48 62.18 62.12 62.46 62.99 63.45 64.69 63.34 63.09 62.92 63.44 64.05 63.74 63.20 62.70 62.02 61.01 60.18 60.12 59.76 58.48 57.47 57.56 58.14 57.91 58.18 58.44 58.51 58.11 58.60 58.53
46.41 40.80 42.77 45.76 51.59 50.91 48.32 44.11 50.29 52.39 51.31 50.65 50.35 51.06 52.25 54.13 56.46 58.76 60.39 61.37 62.15 62.61 63.25 63.46 64.00 63.08 63.12 63.35 63.21 62.94 62.93 63.24 62.31 61.77 61.17 60.39 60.27 60.20 58.62 57.58 57.28 57.86 57.38 57.62 58.56 58.13 57.94 57.75 57.99
40.62 41.70 43.70 43.86 48.30 49.05 46.81 45.84 48.91 51.40 51.34 50.50 51.26 52.38 52.74 53.39 54.46 57.96 59.32 60.82 61.84 62.43 63.34 63.43 64.14 63.80 63.33 63.48 63.11 62.73 63.56 63.51 63.88 62.48 61.73 60.89 60.73 60.45 59.54 58.45 57.71 57.82 57.60 57.84 58.14 57.93 58.45 57.70 57.79
43.44 39.93 41.44 45.42 48.15 45.69 45.29 45.86 47.74 50.51 50.08 48.66 49.52 50.77 51.98 53.40 55.99 55.53 57.56 59.30 60.20 61.10 61.83 62.67 63.15 63.89 63.40 62.71 62.26 61.96 61.62 62.70 62.81 63.18 61.98 61.45 60.83 60.90 60.01 59.48 58.56 58.63 57.48 57.82 58.17 58.25 57.81 56.63 58.10
42.54 39.09 38.91 44.08 46.80 43.50 43.27 43.44 46.66 48.97 49.48 49.94 49.94 49.96 49.99 50.93 53.21 55.36 55.01 56.67 59.38 60.70 61.48 61.52 62.57 63.46 63.77 63.50 63.19 63.15 62.68 62.45 63.01 63.24 63.07 61.96 60.91 60.76 60.64 59.99 59.60 58.66 58.04 57.65 57.93 57.82 56.57 56.38 58.50
41.22 39.11 39.63 39.83 43.38 44.77 42.63 40.51 43.70 47.81 49.69 50.97 51.90 52.60 52.60 51.85 50.71 52.02 54.56 54.47 56.51 59.29 60.56 61.89 62.52 62.74 63.84 64.03 63.72 63.18 62.66 61.65 61.37 61.83 62.08 62.25 61.81 60.99 60.59 60.45 60.16 59.27 59.35 58.49 58.11 57.50 56.68 54.37 56.80
37.91 42.60 42.53 41.72 38.98 35.08 42.80 33.40 39.48 43.80 46.36 48.45 50.21 51.58 52.07 52.26 53.54 53.40 52.62 53.71 54.78 58.08 59.99 61.29 62.15 62.69 63.26 63.93 63.39 62.53 61.61 60.66 61.38 61.77 62.33 62.16 62.42 61.81 61.03 60.51 60.46 59.90 59.88 59.02 58.73 58.72 57.57 56.13 54.13
41.71 44.04 42.06 41.90 39.17 38.09 37.63 35.19 37.29 42.56 42.22 45.14 47.65 49.24 50.14 51.01 51.18 51.86 52.16 52.87 54.12 55.62 57.17 59.85 61.17 62.13 62.99 63.46 63.54 62.79 61.74 61.70 61.64 61.65 61.50 61.76 62.16 62.29 61.99 60.96 60.33 60.06 60.24 59.91 59.26 57.70 58.04 58.08 57.01
45.57 42.69 42.45 41.99 39.78 32.34 36.21 35.09 34.10 39.56 42.88 45.43 46.90 47.94 49.47 49.88 49.86 49.77 51.26 52.33 51.32 52.48 56.00 57.06 58.94 60.18 61.84 62.72 63.18 62.79 61.95 61.56 60.84 60.86 60.89 61.53 62.07 62.09 62.05 61.61 60.78 60.55 60.23 59.95 59.77 59.33 58.39 58.31 58.01
43.95 39.48 31.95 30.79 30.27 29.61 36.84 34.64 37.08 41.39 44.94 45.05 46.04 47.25 48.41 48.63 48.84 49.47 49.68 50.05 51.15 51.81 52.39 54.87 57.65 58.20 59.76 61.38 62.25 62.90 62.59 62.04 61.35 61.01 60.95 60.67 61.23 61.61 61.56 61.51 60.70 60.50 60.43 60.22 60.37 59.66 59.09 58.54 57.99
41.05 39.62 32.05 25.52 26.30 27.91 32.62 29.24 35.96 44.11 45.33 46.61 47.42 47.86 47.88 47.55 47.00 47.31 47.64 48.42 49.08 50.53 51.82 53.17 53.29 56.08 58.12 59.70 61.29 62.41 63.01 62.80 62.49 62.18 61.91 61.57 61.80 62.18 62.24 61.50 61.20 60.76 60.73 60.45 60.27 59.95 59.48 59.05 58.46
40.78 36.80 40.71 32.18 25.23 26.59 31.57 36.97 41.71 43.56 42.86 44.73 45.43 46.79 46.25 45.73 45.94 45.54 46.78 47.21 47.92 48.41 49.31 50.68 53.06 53.44 54.83 57.06 59.38 60.92 62.19 62.65 62.51 62.62 62.48 62.12 62.37 62.51 61.58 61.59 61.00 60.85 60.52 60.36 60.17 59.60 58.97 58.73 58.49
42.15 43.05 33.82 34.61 24.55 22.44 27.75 30.52 33.47 38.43 40.52 43.66 43.41 44.13 44.03 44.64 44.40 45.65 46.30 46.79 47.31 47.73 48.63 48.91 49.46 51.08 53.20 55.45 57.11 58.89 60.65 61.83 62.60 62.68 61.89 61.72 61.88 61.85 60.83 60.96 60.77 60.60 60.56 60.28 59.76 59.52 59.33 58.78 59.06
38.63 38.17 38.73 37.54 32.05 26.38 24.23 28.68 39.85 41.21 41.95 41.52 42.91 43.89 43.46 43.14 43.84 45.55 46.28 46.77 47.47 47.12 47.23 47.46 47.74 48.43 49.87 52.68 54.87 55.93 57.10 59.50 60.73 61.38 61.84 61.68 61.43 61.25 61.16 60.42 60.26 60.01 59.71 59.60 59.29 59.65 59.32 58.38 58.18
41.95 39.55 38.41 31.73 30.31 31.60 29.80 30.17 43.21 43.05 42.48 43.31 43.14 44.05 44.00 42.77 43.97 45.96 46.72 47.78 48.34 48.07 47.29 46.64 46.47 46.98 48.20 50.89 53.28 54.89 56.18 57.11 57.85 59.19 60.36 61.11 60.74 60.49 60.73 60.22 59.62 59.60 59.68 59.77 59.64 58.96 58.12 57.48 56.47

GFSSGP_sfc_wetblb_141.txt.gz
Wetbulb
63.97 60.93 57.18 55.63 48.23 47.17 45.40 46.51 49.30 49.02 50.00 52.23 54.20 53.55 53.85 54.99 55.16 50.12 64.07 67.65 67.86 68.76 70.54 70.70 71.09 70.77 69.79 69.99 69.64 69.43 69.35 68.17 68.38 67.62 67.15 68.17 68.93 67.94 68.40 67.92 68.21 66.47 66.93 66.37 66.16 65.95 65.33 65.35 65.74
62.00 61.11 55.75 52.20 44.92 41.05 43.07 48.53 50.97 51.99 52.99 54.28 55.59 55.01 53.29 54.17 60.27 61.40 62.34 67.79 68.32 68.89 69.89 70.13 70.03 70.45 70.12 69.92 69.46 68.92 69.24 68.76 67.94 67.79 67.15 66.80 68.59 68.77 69.54 67.88 67.62 66.23 66.74 66.31 65.72 65.38 65.86 65.23 65.54
60.90 59.18 51.12 48.95 45.10 41.84 43.14 49.49 51.89 54.00 55.61 53.89 53.53 56.08 56.26 56.85 60.43 61.73 65.03 67.92 68.10 68.20 69.16 69.55 69.86 70.40 70.11 69.65 69.11 68.85 68.84 68.65 68.64 67.54 67.44 66.74 68.41 68.09 68.45 67.48 67.21 66.24 66.36 65.87 65.53 65.37 65.65 65.26 64.89
56.27 54.68 52.53 45.91 43.50 46.10 46.30 51.05 53.41 53.23 54.95 56.50 55.06 53.41 58.11 61.07 61.89 63.94 66.20 66.89 67.30 67.86 68.89 69.27 70.18 70.35 69.92 69.61 68.92 68.48 68.28 68.24 68.58 67.88 67.53 66.71 67.85 68.66 67.99 67.60 67.31 65.86 65.79 65.18 65.44 65.03 64.62 64.22 63.99
54.42 51.62 45.26 44.36 46.12 46.33 46.90 53.11 54.21 52.58 53.58 54.30 54.59 52.95 56.18 62.10 64.57 65.42 65.35 67.44 67.00 67.81 68.63 69.29 69.70 69.98 69.89 69.63 69.20 68.71 68.55 68.20 67.83 67.38 66.94 66.08 66.99 67.77 67.96 66.75 66.40 65.87 65.19 65.61 64.96 64.68 64.50 63.89 63.51
49.98 50.18 42.62 40.69 48.01 49.05 48.43 51.06 53.04 52.63 53.55 54.52 52.65 54.80 56.66 62.99 63.49 64.22 65.28 66.46 67.70 67.39 68.67 68.86 67.26 68.35 69.09 69.22 68.97 68.79 68.79 68.48 67.87 67.34 66.24 65.47 65.75 66.86 67.02 65.44 66.25 66.01 65.58 65.27 64.69 64.38 64.03 63.17 62.89
47.90 46.54 43.00 42.77 45.58 49.68 49.35 52.27 49.66 51.10 52.88 53.14 56.45 53.07 57.19 60.80 63.57 64.76 64.66 66.43 67.62 67.80 67.86 67.67 68.04 67.53 66.42 67.35 67.34 67.79 68.23 68.01 67.59 67.14 65.49 65.66 64.58 66.14 66.27 64.49 65.63 66.65 65.89 65.01 64.35 63.89 63.74 62.75 62.21
49.24 47.18 43.60 43.15 44.08 45.99 51.12 51.72 52.11 52.26 51.68 56.30 55.80 52.06 53.79 59.75 63.74 64.35 64.33 65.47 65.38 66.46 67.13 66.52 66.97 67.14 66.81 66.24 64.56 65.26 66.03 66.27 66.53 65.20 64.32 63.66 63.20 63.36 63.16 62.86 64.14 65.33 65.05 64.69 64.26 63.92 63.48 62.48 61.29
51.68 42.96 41.37 44.52 46.05 46.47 51.04 49.91 52.69 53.90 53.18 53.85 55.73 54.93 58.18 63.36 63.30 62.63 62.13 63.74 64.26 65.29 65.60 65.73 66.00 66.28 66.29 65.70 63.86 63.24 63.94 64.25 63.67 62.76 61.33 60.39 59.88 59.88 60.49 60.93 62.90 65.29 65.16 64.42 63.96 63.71 63.92 63.08 61.70
46.98 42.00 44.45 48.38 48.08 46.46 49.09 49.08 50.89 49.91 49.98 50.88 54.15 60.23 62.24 62.59 61.57 60.45 60.08 60.61 62.14 62.20 61.58 63.68 65.35 65.26 65.88 66.50 64.15 63.70 63.65 62.74 61.43 60.50 59.65 59.89 59.40 59.30 60.37 59.92 61.23 63.74 63.43 64.02 63.50 63.49 63.23 61.13 57.90
47.75 43.60 48.01 48.64 48.85 49.34 48.60 48.79 50.36 49.32 47.22 51.07 53.33 58.48 60.69 60.54 60.18 59.79 59.52 59.85 60.38 61.50 60.84 61.34 63.38 63.73 65.11 65.40 65.04 63.49 62.34 61.39 60.70 59.55 59.02 59.27 59.76 58.63 59.52 59.13 59.70 59.20 59.51 59.79 61.45 60.45 59.20 58.50 59.08
45.75 49.76 49.86 51.04 49.75 49.22 47.62 49.45 48.17 47.95 49.83 52.73 52.95 60.14 60.30 59.78 60.00 59.64 59.60 59.74 60.25 60.67 61.06 61.00 61.58 62.51 64.19 65.12 65.00 63.42 62.54 61.37 60.04 59.58 59.49 58.55 58.90 58.10 58.58 58.50 58.23 58.28 58.47 57.67 58.05 57.78 57.54 57.63 58.35
47.06 48.90 51.45 51.65 49.42 48.67 50.20 48.02 47.39 48.28 51.00 52.14 57.02 59.48 59.59 59.67 59.82 60.37 60.57 60.30 60.69 60.95 61.64 60.70 61.05 61.80 63.84 64.00 63.96 63.66 62.76 62.46 61.56 60.19 60.22 59.38 58.64 58.16 57.94 57.90 57.51 57.39 57.75 56.87 57.30 57.80 58.09 57.93 58.53
49.28 50.25 50.54 51.19 50.56 49.61 48.46 47.83 47.34 48.69 50.50 49.25 52.81 56.06 57.66 59.45 59.69 59.93 59.99 60.35 60.75 61.66 61.13 61.35 60.82 61.25 63.83 63.55 63.13 63.48 63.26 62.49 61.96 60.72 60.76 60.11 59.43 58.76 58.00 57.37 57.32 56.86 57.45 57.51 57.21 57.44 57.29 57.57 58.99
50.53 45.93 47.49 48.31 49.28 48.70 49.09 45.67 45.62 49.77 50.66 50.16 49.99 51.03 54.16 56.92 60.06 59.87 60.91 61.20 61.99 62.37 61.87 61.27 61.29 61.30 61.60 63.00 62.96 63.15 63.31 62.96 61.19 60.68 60.35 60.24 59.52 58.70 58.84 57.62 56.76 56.91 57.01 56.91 56.75 57.24 57.16 56.99 58.30
44.93 46.07 40.67 47.06 49.04 49.65 48.23 42.26 47.62 50.44 48.54 48.97 48.65 48.51 51.42 53.52 56.94 60.90 61.67 62.28 62.79 62.41 62.30 61.87 62.95 61.85 61.10 61.93 62.91 62.99 63.30 62.89 62.41 61.27 60.49 60.20 59.94 58.59 57.16 57.30 56.69 56.92 56.58 56.24 56.50 56.91 56.88 56.62 56.43
43.93 38.22 39.85 43.13 49.10 47.96 46.32 43.12 48.10 51.25 49.05 47.59 47.69 47.82 48.67 51.18 53.11 56.94 60.88 61.91 62.09 62.83 62.47 62.60 62.42 62.00 61.93 61.43 62.03 62.53 62.86 62.89 62.59 62.50 61.00 59.82 59.98 59.23 57.61 56.74 56.62 56.97 56.36 56.16 56.72 56.91 56.72 56.06 56.15
39.50 39.07 40.93 40.03 44.72 46.41 45.33 44.87 46.78 49.51 49.08 47.32 48.25 48.65 49.16 50.05 51.59 55.06 58.45 61.41 62.36 62.55 62.94 62.87 62.90 62.41 62.32 62.62 61.38 61.12 61.65 61.97 62.39 61.99 61.37 59.95 59.84 59.34 58.64 57.51 56.77 56.68 55.81 55.47 56.44 56.44 56.54 56.30 55.48
42.51 39.66 37.38 39.78 45.41 44.22 41.99 42.04 44.81 47.68 47.42 46.58 46.85 48.29 50.11 51.64 53.98 53.65 57.33 59.32 61.59 61.66 61.87 62.34 62.35 62.62 62.44 61.77 61.57 61.14 61.00 61.64 61.86 62.59 62.01 61.03 60.12 59.37 59.01 58.60 57.26 56.22 56.04 56.30 56.82 56.69 56.23 55.67 55.91
43.04 40.69 39.49 41.13 45.79 44.27 42.29 42.25 45.26 46.54 46.62 47.11 47.29 47.19 47.57 49.60 51.27 52.87 53.04 55.99 59.44 60.82 61.10 61.50 61.98 62.87 62.66 62.68 62.59 62.58 62.13 62.00 62.50 62.03 62.31 62.43 60.91 59.95 59.56 59.06 58.38 57.53 56.72 56.30 57.01 57.06 55.60 56.25 55.79
40.50 40.09 39.16 39.00 42.80 44.54 43.07 40.16 42.58 45.90 46.90 49.23 50.10 50.87 50.95 49.44 49.76 50.06 51.19 52.49 57.41 59.36 60.35 60.78 61.48 62.53 63.07 63.10 62.65 62.22 61.28 60.31 60.22 60.39 61.14 61.66 61.71 60.63 59.97 59.70 59.36 58.68 58.12 57.16 56.93 57.19 56.76 55.61 54.67
37.54 42.53 41.80 41.00 38.78 34.02 41.97 31.87 38.01 40.97 42.89 45.14 47.53 49.42 50.80 51.69 52.21 52.12 50.61 50.03 51.86 57.70 59.97 60.85 61.34 61.42 63.08 63.21 62.26 61.42 60.96 60.37 61.63 61.85 61.74 61.56 61.00 60.48 60.17 60.19 59.72 59.28 59.06 58.30 57.74 57.69 57.34 55.88 54.73
39.46 42.79 41.29 41.08 39.02 38.03 36.21 32.54 34.15 39.87 38.80 42.85 44.78 46.59 49.07 51.11 52.27 51.92 50.89 51.59 50.83 54.26 56.11 59.58 60.81 61.18 62.07 62.74 62.96 61.81 61.10 61.77 62.14 62.11 61.21 61.10 61.58 61.09 60.19 59.96 59.51 59.45 59.39 59.07 58.58 57.93 57.14 57.23 56.73
45.21 42.25 41.73 41.83 38.78 31.62 34.90 34.27 33.14 36.10 40.10 40.95 44.23 45.04 46.02 46.26 47.07 48.59 48.91 49.51 49.64 50.07 51.60 54.53 57.04 59.59 61.38 61.39 62.31 62.14 61.55 61.47 60.96 60.32 60.40 60.75 61.11 61.12 61.18 60.27 59.73 59.55 59.51 59.12 58.94 58.64 58.12 57.80 57.49
43.53 39.37 31.64 30.00 30.36 27.66 35.51 33.79 36.04 39.91 41.96 42.76 44.07 43.99 44.29 44.53 45.00 45.99 46.56 46.57 47.70 48.23 49.37 51.66 54.76 56.31 58.53 60.39 61.29 61.86 62.00 61.90 61.30 60.56 60.18 60.20 60.48 60.72 60.87 60.90 60.09 59.68 59.49 59.57 59.52 58.86 58.50 57.87 57.49
41.08 38.83 31.03 24.97 26.23 26.62 33.02 30.78 34.92 42.86 44.83 45.23 45.64 44.98 43.75 43.84 44.77 45.27 46.23 46.22 46.44 47.52 47.76 48.18 50.77 52.30 55.81 56.99 59.32 61.22 61.89 62.24 62.05 61.77 61.28 60.85 60.94 61.30 61.76 61.31 61.27 60.51 60.21 59.70 59.54 59.21 58.86 58.59 57.75
40.08 36.50 38.90 30.12 22.03 24.28 28.93 34.12 39.70 42.90 41.28 42.01 42.86 41.87 41.87 43.04 43.97 44.20 45.08 46.24 46.58 46.41 47.11 47.31 47.50 49.22 51.73 53.49 57.04 58.50 60.37 61.28 61.98 62.09 62.04 61.61 61.54 61.56 61.31 61.42 60.87 61.10 60.25 59.97 59.68 59.24 58.92 58.89 58.25
42.16 42.91 34.11 34.57 25.17 21.13 26.03 28.48 31.64 37.09 39.31 41.01 41.12 40.89 42.14 41.99 43.03 43.95 45.00 45.46 46.10 46.22 46.27 46.91 47.40 47.17 48.11 50.20 52.82 55.31 57.42 59.98 61.34 62.15 61.65 61.65 61.73 61.24 60.97 60.76 60.76 60.65 60.30 59.83 59.52 59.57 59.61 58.96 58.82
38.94 38.18 38.78 37.48 32.54 25.38 22.35 26.91 36.52 38.70 40.55 40.27 41.32 42.09 42.69 42.39 42.68 44.37 45.79 45.81 45.95 46.03 46.00 46.01 46.25 46.34 46.66 47.49 49.40 51.98 54.17 56.44 59.11 60.70 61.61 61.71 61.67 61.43 60.46 60.54 60.50 60.29 59.95 59.68 59.15 59.42 59.57 58.69 58.42
39.99 38.96 38.55 33.02 29.85 30.45 28.36 28.97 39.93 40.47 41.03 41.12 41.20 42.25 41.80 42.41 43.36 46.12 46.31 45.14 44.20 44.26 45.67 45.62 45.69 45.59 46.37 46.96 47.79 49.58 51.95 53.72 55.19 57.86 60.05 61.12 61.15 60.61 60.64 61.17 60.50 60.04 59.98 59.85 59.09 58.68 58.99 58.64 57.83

GFSSGP_sfc_wetblb_144.txt.gz
Wetbulb
63.01 61.12 56.02 55.24 47.58 46.17 42.09 44.41 46.84 48.72 48.32 51.18 52.78 53.26 52.79 54.62 53.73 47.43 62.48 66.53 68.52 68.79 70.11 70.00 70.68 70.35 69.56 69.71 69.73 69.34 68.83 68.75 67.88 67.00 69.53 68.34 67.68 68.69 67.57 66.84 66.57 66.96 66.48 66.02 65.96 65.48 65.47 66.21 66.11
60.76 60.42 55.09 50.93 44.51 40.80 41.51 47.63 49.00 50.51 52.45 53.16 55.00 54.01 54.03 53.55 59.53 60.82 62.56 67.46 68.71 69.41 69.85 69.36 69.74 70.20 69.25 69.57 69.46 69.31 69.27 68.58 67.97 67.10 67.91 68.70 68.45 68.88 67.88 66.67 66.18 66.51 65.94 65.75 65.65 65.58 64.97 65.57 65.62
59.27 57.50 51.23 47.26 43.02 40.70 41.95 48.62 50.08 52.17 53.61 53.60 52.45 55.88 55.68 56.21 59.64 61.49 64.45 67.45 68.62 68.80 69.43 68.85 69.51 70.08 69.24 69.41 69.17 69.13 69.13 68.65 67.22 67.02 67.07 68.73 68.77 69.13 67.45 66.46 66.02 65.95 65.58 65.45 65.25 64.90 65.10 64.78 64.73
55.19 53.45 50.97 45.05 42.18 44.76 46.09 50.63 51.82 51.97 52.96 55.23 54.40 53.31 56.80 60.87 61.27 63.07 66.59 67.52 67.36 67.89 68.73 68.63 69.77 69.98 69.09 69.06 68.81 68.33 68.50 68.57 67.55 67.55 66.79 68.54 68.25 68.08 67.21 66.45 66.18 66.24 65.38 65.23 65.10 64.58 64.10 63.98 64.02
53.32 50.07 44.16 42.51 43.60 44.52 46.34 52.08 52.08 51.13 50.64 52.08 53.35 52.66 55.80 61.58 63.57 64.34 64.99 66.44 66.49 67.21 68.32 68.51 69.29 69.62 69.45 68.89 68.41 68.26 68.14 68.22 68.25 67.81 66.50 67.12 68.25 67.69 67.40 66.39 65.99 65.07 65.10 64.66 64.59 64.31 63.57 63.30 63.55
49.51 48.63 41.91 40.00 43.57 45.91 47.04 52.62 52.73 51.09 51.71 52.39 51.74 54.35 55.56 62.01 63.09 63.45 65.88 66.36 67.28 67.25 68.35 68.36 66.94 67.91 68.68 68.63 68.35 68.59 68.43 68.33 67.88 66.96 67.06 67.04 66.60 67.77 66.72 66.08 65.72 65.26 65.42 64.57 64.33 63.88 63.02 62.70 62.91
47.12 45.41 42.01 41.63 42.85 45.46 48.34 51.67 49.82 50.66 51.41 51.40 54.01 53.17 54.74 60.42 63.32 63.67 64.96 66.41 66.90 67.56 67.72 67.59 67.36 66.80 66.06 67.12 67.20 67.90 68.26 67.97 67.69 67.08 66.54 66.04 65.33 66.98 66.28 64.65 66.96 65.96 65.26 64.60 63.98 63.57 62.88 62.09 62.05
47.96 46.01 42.31 41.91 42.05 44.73 49.06 50.16 50.98 51.09 50.77 54.73 54.68 51.55 52.62 59.53 63.26 63.70 63.80 65.35 66.89 66.96 66.76 66.72 66.69 66.58 66.24 65.86 64.33 65.23 66.36 66.55 66.55 65.63 64.71 63.44 63.61 63.79 64.23 62.84 65.50 66.30 65.69 64.86 64.23 63.62 62.99 61.79 60.95
49.58 42.43 40.38 42.69 44.25 45.92 50.19 48.43 51.16 52.66 52.98 52.80 54.72 54.44 56.66 62.38 62.79 62.03 61.61 62.77 64.91 65.71 65.48 66.08 66.16 66.05 65.64 65.10 63.61 62.92 63.72 64.22 63.96 62.78 61.84 60.56 59.52 59.98 60.00 60.68 62.99 65.63 65.21 64.57 64.09 63.84 63.53 62.87 61.43
46.04 40.98 43.22 46.58 45.19 44.66 47.46 47.40 49.63 48.81 49.38 51.14 53.88 59.10 60.69 61.98 60.99 60.34 59.74 59.99 60.76 63.89 64.47 65.24 65.42 65.41 65.41 65.96 63.73 63.21 63.34 62.49 61.35 60.53 59.31 59.06 58.49 58.37 59.50 58.65 60.75 63.89 63.94 64.56 63.85 63.64 63.52 60.93 57.39
45.95 42.64 46.39 47.66 47.66 47.94 47.74 47.71 47.93 47.68 45.79 50.26 52.35 57.60 59.61 59.40 59.27 59.78 59.58 59.80 60.90 61.80 63.59 64.52 64.98 65.08 64.98 65.01 63.58 63.00 62.08 61.17 60.13 59.28 58.55 58.57 58.71 57.49 58.01 58.22 58.82 59.77 59.42 59.76 61.39 60.35 59.03 58.61 57.72
45.03 48.45 48.35 50.04 48.78 48.19 46.50 48.23 47.92 46.33 48.07 50.58 52.07 59.78 59.71 59.49 59.48 59.79 59.92 59.37 60.15 59.88 61.10 62.67 64.60 64.36 64.83 64.96 63.83 62.97 62.07 60.84 60.04 59.11 58.62 57.99 57.73 56.83 57.05 57.59 58.14 57.91 58.28 57.19 57.18 57.02 57.07 56.84 57.10
45.91 47.64 49.87 50.31 48.59 47.84 48.88 47.36 46.83 47.67 50.36 50.32 54.32 59.94 59.59 59.67 59.96 60.22 60.34 59.95 59.78 60.04 60.39 60.48 62.15 62.83 64.34 64.00 64.01 63.10 62.21 61.30 60.48 59.60 59.29 58.71 57.89 57.50 57.82 58.12 57.73 57.43 57.36 56.58 56.05 56.61 56.87 56.63 57.12
47.87 48.88 49.09 49.41 49.37 48.55 47.42 46.93 47.20 48.00 48.55 48.31 54.85 57.39 58.57 59.31 59.43 59.29 59.28 60.04 59.81 60.54 60.76 60.27 60.16 61.99 63.56 63.83 63.31 63.05 62.60 61.92 61.08 60.02 59.82 59.15 58.62 58.28 57.92 57.85 57.24 56.84 56.73 56.54 55.92 56.46 56.79 56.86 57.27
49.15 45.10 46.71 47.11 48.09 47.56 48.04 45.16 44.53 48.88 48.66 48.39 48.05 52.36 56.32 58.84 59.11 59.20 60.66 60.63 61.20 61.28 61.60 60.85 60.48 60.83 62.82 63.35 62.85 62.83 62.81 62.60 61.57 60.93 60.20 60.02 59.25 59.06 58.89 57.60 57.04 56.84 56.45 56.76 56.07 56.03 56.28 56.12 56.98
44.45 44.65 39.63 45.80 47.90 48.83 47.13 41.80 46.66 49.88 47.49 47.93 48.38 46.60 49.51 55.09 58.87 60.03 60.36 61.15 61.53 61.68 61.71 62.22 62.36 61.05 62.15 62.86 62.85 62.94 62.75 62.53 62.10 61.20 60.50 60.23 60.02 59.34 58.17 57.61 56.98 57.15 56.58 56.39 55.35 55.28 55.41 55.33 55.55
44.64 40.67 39.57 42.23 47.36 46.23 44.86 41.41 46.66 49.61 48.84 47.24 46.95 47.59 46.91 50.07 51.65 58.11 60.46 60.96 61.37 61.88 61.92 62.31 62.09 61.29 60.66 62.48 62.87 62.68 62.28 62.19 62.04 61.79 60.97 60.39 60.37 59.67 58.69 57.88 57.67 56.91 56.56 55.36 55.46 55.34 55.43 54.74 55.18
40.38 38.38 41.03 39.60 43.30 43.84 42.24 41.90 44.81 47.23 47.05 46.11 46.31 47.13 47.05 46.86 49.49 52.61 58.20 60.97 61.66 61.98 62.27 62.18 62.78 62.14 61.15 61.11 62.16 62.37 61.97 62.25 62.37 61.86 61.60 60.40 60.16 59.68 58.39 57.60 57.09 57.11 56.45 55.49 54.85 54.92 55.18 55.20 55.20
40.60 39.24 38.68 38.48 44.19 42.53 41.16 41.77 43.79 45.94 45.63 45.04 46.30 46.21 46.95 48.83 51.85 52.02 53.51 58.69 60.53 61.02 61.47 61.77 61.89 62.41 61.59 60.88 59.88 60.31 60.46 61.49 61.72 62.12 61.89 60.88 59.97 59.34 58.91 58.51 57.06 56.39 56.14 56.01 55.56 55.54 55.15 55.31 55.01
41.36 39.38 40.69 41.90 43.98 42.68 41.51 41.58 44.35 45.96 46.26 47.50 47.10 47.19 47.09 47.27 49.23 51.18 51.74 53.56 58.32 60.04 60.78 61.36 61.53 61.95 61.71 62.09 61.93 61.94 61.60 61.74 62.17 62.34 62.05 61.40 60.57 59.40 59.02 58.61 57.53 56.95 56.15 55.08 55.30 55.71 54.81 55.66 55.24
41.92 39.63 39.19 40.02 41.96 43.67 41.74 39.89 41.92 45.99 46.47 47.61 48.89 48.88 49.67 50.07 50.36 51.33 50.66 50.87 55.58 58.54 59.72 60.77 61.26 61.58 62.03 62.65 62.27 61.43 60.31 59.26 59.56 60.87 61.45 61.35 61.48 60.50 59.39 59.07 58.52 57.68 57.22 56.55 55.89 55.69 55.40 54.44 53.73
38.41 42.42 41.73 40.28 39.25 34.41 41.35 31.49 37.93 40.19 43.12 44.71 47.09 48.80 49.68 50.86 51.32 52.28 52.63 49.38 50.14 55.69 59.26 60.28 60.87 61.26 61.94 62.46 61.87 61.03 60.51 59.67 60.91 61.41 61.98 61.67 61.43 60.89 60.17 59.69 58.87 58.45 58.05 57.46 56.78 56.38 56.15 55.77 54.22
39.53 42.06 40.43 40.16 39.13 37.81 37.75 34.14 35.45 37.56 37.42 41.13 44.45 45.42 46.75 48.42 49.67 50.39 49.47 49.40 48.89 50.64 54.51 57.90 59.85 60.21 61.33 62.05 62.22 61.17 60.54 61.30 61.71 61.50 61.11 61.21 60.75 60.84 60.15 59.65 59.13 58.68 58.54 58.20 57.78 56.84 56.07 56.70 56.05
42.94 40.57 39.72 39.14 38.87 31.65 35.60 34.69 32.71 34.92 38.61 39.72 42.79 42.44 43.77 43.52 44.70 45.45 46.66 47.46 47.47 48.20 49.71 53.53 56.15 57.66 59.17 60.75 61.55 61.30 60.67 60.69 60.48 60.50 60.37 60.84 60.77 60.63 60.22 59.35 59.41 59.15 58.97 58.49 58.25 57.94 57.29 56.55 56.46
42.39 37.20 31.29 29.96 30.17 28.52 34.47 33.08 35.60 37.57 40.83 41.25 41.69 41.89 41.81 42.41 42.69 43.32 44.21 44.63 45.63 45.91 46.51 48.64 52.27 54.64 56.85 58.31 60.33 61.40 61.24 61.10 60.57 60.47 60.32 60.17 60.11 60.18 60.49 60.03 59.04 59.21 59.04 59.07 58.84 58.18 57.71 57.22 56.63
40.32 38.40 32.05 25.07 25.93 28.42 31.62 29.62 34.21 41.60 43.29 43.93 43.86 43.16 42.44 42.84 43.06 43.64 44.17 44.34 44.68 45.39 45.64 45.99 46.84 48.14 49.91 54.11 56.85 58.94 60.83 61.49 61.41 61.52 61.31 60.50 60.44 60.68 61.06 60.58 60.57 59.86 59.63 58.97 58.87 58.42 58.11 57.99 57.45
39.43 36.66 40.43 30.13 22.01 24.42 29.20 32.84 37.76 40.16 39.13 40.15 40.31 41.10 41.04 42.63 43.62 43.76 44.08 44.03 43.96 44.85 45.32 45.04 45.90 46.41 47.10 47.80 50.31 54.31 57.97 59.79 60.93 61.42 61.77 61.46 61.09 61.00 60.83 60.72 60.37 60.50 60.19 59.65 58.86 58.76 58.57 58.58 58.40
42.01 42.73 34.10 33.74 26.12 23.13 26.98 27.82 32.06 35.18 37.28 39.21 38.49 39.49 40.91 41.57 43.16 43.57 43.46 43.67 43.75 43.91 44.41 45.33 45.37 45.44 46.00 46.52 47.11 49.13 52.24 56.24 59.06 60.45 60.87 61.22 61.43 61.15 60.66 60.26 60.41 60.46 60.41 60.12 59.75 59.29 59.34 58.90 58.77
39.67 37.08 38.38 37.12 30.00 25.09 21.35 25.46 34.21 37.70 38.24 38.29 38.78 40.13 40.73 41.70 42.79 43.26 43.38 43.03 41.34 42.22 42.98 43.46 44.72 44.62 45.87 46.45 46.49 46.92 48.07 50.52 53.84 56.96 59.05 60.45 61.22 61.30 60.50 60.47 60.27 60.50 60.41 60.56 59.95 59.62 59.59 58.88 58.59
38.35 37.83 35.92 32.15 30.24 29.15 27.35 27.76 38.29 38.58 38.47 38.89 38.72 40.09 40.35 42.00 44.20 44.07 41.42 40.02 40.81 41.80 42.13 42.20 43.70 44.95 45.48 46.14 46.01 46.40 47.56 48.88 50.12 52.03 54.71 57.77 59.45 60.88 60.83 60.28 60.32 60.48 60.40 60.49 59.96 59.17 59.12 58.81 58.24

GFSSGP_sfc_wetblb_147.txt.gz
Wetbulb
63.55 59.06 54.54 54.57 47.43 44.81 40.58 42.82 45.54 46.81 46.93 50.55 52.23 51.82 51.31 53.69 51.50 45.53 62.08 66.08 67.76 68.41 69.82 69.83 70.02 70.01 69.72 69.16 69.33 68.61 68.89 68.73 67.30 68.24 68.80 69.16 68.42 67.56 66.94 66.60 66.62 66.08 65.79 65.80 65.64 66.39 66.74 66.46 66.70
59.45 58.50 54.98 50.16 44.39 39.49 40.77 45.97 46.52 49.10 50.58 54.09 54.45 53.36 53.33 51.90 58.04 59.44 61.80 67.05 68.22 68.92 69.11 68.88 69.63 70.22 69.14 69.17 69.21 68.77 68.78 68.39 66.91 69.21 68.28 67.68 68.67 67.78 66.88 66.22 65.96 65.78 65.71 65.32 65.02 65.56 65.95 65.67 65.66
57.66 55.50 51.21 46.27 41.96 39.94 41.48 47.54 48.26 50.41 52.33 51.93 50.73 55.67 54.67 55.00 58.23 60.83 63.18 67.57 68.59 68.64 68.64 68.26 69.36 69.61 68.76 68.89 69.15 68.88 68.34 68.46 66.88 67.14 68.18 68.23 68.96 67.78 66.78 66.03 66.20 65.30 65.05 65.08 64.64 65.26 65.06 64.64 64.48
54.00 53.06 49.84 44.49 41.77 43.72 44.54 49.51 50.27 50.40 51.83 53.75 53.00 51.77 55.81 60.36 60.13 62.40 66.41 67.93 67.80 67.90 67.93 68.23 69.61 69.24 68.54 68.82 68.33 68.52 67.73 66.98 67.89 66.63 68.18 68.11 69.26 67.56 66.58 66.04 66.22 65.99 64.94 64.70 64.67 64.46 64.10 63.97 64.41
52.83 49.10 43.25 41.79 42.22 44.35 45.63 50.59 51.08 49.32 50.53 52.19 52.55 51.28 52.93 61.07 62.42 64.49 65.83 67.01 66.46 66.81 67.28 67.81 69.20 69.15 69.19 68.93 68.10 68.11 69.05 68.08 67.81 67.42 67.37 68.45 68.36 67.08 66.47 66.02 65.90 64.79 64.50 64.40 64.23 63.86 63.13 63.03 63.93
49.12 47.87 41.43 39.12 42.46 45.83 45.88 51.39 50.24 49.50 50.20 51.17 51.87 53.14 54.22 60.97 61.91 63.04 64.96 65.11 66.86 67.06 67.49 67.59 66.63 67.71 68.17 68.22 67.96 68.00 68.23 68.77 68.39 68.09 67.72 68.45 68.35 67.04 66.17 65.68 65.05 64.83 65.04 64.41 64.06 63.29 62.54 62.53 63.36
46.74 44.68 41.27 40.30 41.75 44.45 45.92 50.54 48.48 49.47 49.45 50.15 53.97 50.83 53.78 58.99 61.90 63.89 64.78 65.21 66.28 67.34 67.25 66.86 66.57 66.33 65.60 66.65 66.71 67.43 68.03 67.77 67.63 67.43 66.96 66.72 66.21 67.39 67.01 66.32 66.16 65.41 64.84 64.31 63.74 63.20 62.24 61.97 62.39
47.38 45.33 41.54 40.37 40.94 42.75 47.99 48.72 49.50 49.96 50.31 53.22 55.47 49.40 50.73 59.39 62.36 63.32 64.31 64.68 65.13 66.36 66.73 66.21 66.02 65.66 65.48 65.25 64.24 65.17 66.19 66.38 66.12 65.48 64.82 63.44 63.68 64.85 64.27 63.08 66.02 65.84 65.13 64.31 63.67 63.11 62.54 61.34 61.10
47.98 42.10 39.73 42.30 42.62 44.08 47.70 47.81 50.29 51.74 51.50 52.82 54.38 53.37 55.90 61.14 62.07 61.18 60.76 62.69 65.57 66.11 65.87 66.02 65.64 65.22 64.87 64.60 63.33 63.12 63.96 64.28 64.07 63.12 61.79 60.54 59.39 60.30 60.38 60.72 64.03 66.21 65.84 64.84 64.07 63.65 63.28 62.60 61.31
45.33 40.89 42.81 45.70 44.87 43.79 45.66 46.00 46.02 48.00 49.67 50.46 52.14 56.60 59.08 60.82 60.14 59.69 59.90 60.70 61.27 63.74 64.25 65.59 65.71 65.08 64.68 65.56 63.31 62.63 63.22 62.57 61.97 60.47 59.98 59.21 58.41 58.07 58.90 58.00 60.75 63.43 63.79 64.74 64.08 63.94 63.55 60.89 56.80
44.29 41.97 45.39 46.51 46.44 46.67 46.52 45.63 46.59 46.41 44.94 49.34 50.50 54.63 58.28 58.01 58.69 59.45 59.28 59.87 61.22 62.86 63.71 64.70 65.01 65.10 64.63 64.60 62.69 61.89 61.46 60.84 60.33 59.17 58.43 58.08 58.15 57.09 57.65 57.28 57.92 58.98 59.79 59.94 61.43 60.21 58.92 58.12 57.20
43.65 46.58 46.86 48.93 47.80 46.92 45.42 47.04 45.67 45.65 47.77 50.13 49.81 55.71 58.46 58.56 58.85 59.35 59.70 59.68 59.60 60.01 62.88 63.77 64.63 64.47 64.42 64.61 63.20 62.14 61.27 60.31 59.41 58.67 58.24 57.08 56.52 55.90 56.28 56.60 57.23 56.90 58.05 57.24 57.15 57.01 57.06 56.50 56.76
45.34 46.30 48.28 49.03 47.64 47.20 47.60 46.35 46.16 46.67 49.60 49.51 51.07 57.63 58.41 59.10 59.44 59.81 60.16 60.37 59.51 59.70 60.72 62.56 63.62 63.88 64.28 64.03 63.76 62.47 61.73 61.03 60.41 58.89 58.44 57.61 56.39 55.80 55.91 56.40 56.68 56.85 56.84 56.54 55.70 55.69 55.85 55.55 55.72
46.74 47.57 47.89 48.18 48.46 47.87 46.31 45.23 46.72 47.55 47.87 47.46 52.38 55.40 57.13 58.37 59.29 58.67 58.82 59.75 59.53 60.38 60.35 60.53 62.01 63.48 63.77 63.83 63.68 63.25 62.42 61.60 60.36 59.75 59.23 58.25 57.60 56.99 56.71 56.90 56.95 56.42 56.60 56.46 55.92 55.81 55.98 55.78 56.40
47.84 44.83 45.98 45.97 47.26 47.24 46.99 44.02 43.52 48.61 47.40 47.77 47.71 47.84 55.21 57.61 58.49 58.91 60.39 60.34 61.05 61.08 61.10 60.23 60.01 61.90 62.63 63.58 63.37 63.39 62.96 62.32 61.05 60.16 59.53 59.22 58.46 57.59 57.97 57.45 57.52 57.64 56.78 56.43 55.88 55.33 55.11 55.16 56.15
43.87 43.08 39.29 44.37 46.50 47.62 46.48 40.58 45.55 49.10 46.48 47.30 47.94 47.17 46.65 51.60 58.01 59.56 60.21 60.50 61.23 61.47 60.68 61.61 61.88 60.07 61.44 62.88 63.44 63.30 63.03 62.61 61.90 61.16 60.37 59.74 59.42 58.54 58.22 57.69 57.49 57.84 56.69 56.28 55.22 55.26 54.67 54.55 54.57
41.31 38.09 37.76 41.24 45.31 44.97 43.93 39.85 45.88 47.27 46.95 45.66 45.55 46.58 47.33 47.03 49.58 57.34 59.94 60.08 60.75 61.22 61.44 61.22 61.56 60.73 60.09 61.97 62.93 63.21 62.94 62.48 62.38 61.77 61.03 60.23 59.92 59.39 58.89 58.41 58.29 56.76 56.77 56.24 55.80 54.97 55.36 54.49 54.90
40.24 36.72 39.08 38.85 42.33 43.05 42.14 42.10 44.20 46.07 46.07 45.21 45.06 45.28 46.71 47.39 48.30 50.46 54.39 60.11 60.67 60.78 61.22 61.42 61.62 61.81 60.69 61.05 62.01 62.25 62.09 62.10 62.64 62.04 61.50 60.70 60.13 59.63 58.76 58.84 58.58 57.70 56.92 56.13 55.17 55.27 54.57 55.21 55.38
42.76 38.14 37.70 37.24 43.29 41.33 40.51 41.03 43.44 45.72 44.93 44.52 45.72 46.07 46.74 48.68 50.85 50.36 49.64 53.51 59.00 60.01 60.31 60.84 60.74 61.52 60.91 59.51 59.43 60.43 60.33 60.89 61.52 62.06 61.91 61.49 60.57 59.73 59.13 59.10 57.78 57.06 57.02 56.91 55.73 55.27 54.36 54.28 54.06
42.81 41.16 39.96 41.92 43.78 43.96 40.95 41.25 44.31 45.31 45.91 47.19 47.05 47.81 48.71 49.18 48.34 50.06 50.50 50.29 53.31 58.10 60.13 60.67 60.87 61.33 61.14 61.13 60.65 60.94 60.84 61.15 61.87 62.18 62.02 61.83 61.05 60.25 59.62 59.36 58.77 57.00 56.71 56.18 55.76 55.33 54.67 54.80 54.08
40.57 38.99 39.62 40.33 41.85 41.83 40.92 39.44 41.46 44.59 46.11 47.64 48.26 48.80 49.63 49.92 50.46 51.52 50.72 50.58 50.19 54.12 57.55 59.75 60.86 61.14 61.58 61.71 61.36 60.24 59.37 58.63 59.43 60.68 61.16 61.56 61.33 60.70 59.66 59.79 59.51 57.99 57.18 56.72 55.88 55.37 54.71 53.96 53.06
37.72 41.76 41.02 39.66 39.13 34.33 38.70 30.82 37.67 39.33 40.13 42.55 44.59 46.13 47.59 48.33 49.94 51.13 50.97 49.95 48.65 50.20 54.85 58.47 60.03 60.71 61.13 61.61 61.03 60.05 59.65 58.98 60.44 61.13 61.17 61.23 60.89 60.92 60.26 59.72 59.16 58.76 57.85 57.43 57.02 56.13 55.49 54.81 53.43
38.76 41.95 40.53 39.12 37.04 37.71 37.85 34.20 33.02 36.38 38.56 41.56 42.81 43.77 43.50 46.26 47.93 47.17 47.86 49.14 49.58 48.45 50.84 56.39 58.28 59.08 60.01 60.14 61.11 60.41 59.77 60.68 61.03 60.39 60.21 60.30 60.54 60.71 60.64 59.85 59.58 58.57 58.30 57.81 57.47 56.01 54.99 55.62 54.79
42.09 39.46 38.73 39.82 38.40 30.95 34.43 34.30 33.78 36.43 38.53 38.36 40.35 42.01 41.58 42.09 42.46 43.73 44.54 45.67 45.59 45.57 46.88 50.01 53.92 56.39 57.89 58.94 60.13 60.33 59.79 59.87 59.81 59.55 59.56 60.17 60.31 59.86 60.30 59.98 59.39 59.42 58.64 58.20 57.72 57.17 56.10 55.45 55.79
41.30 37.41 31.24 29.45 29.49 28.12 32.64 32.89 35.08 39.35 39.20 40.81 40.92 39.17 39.71 40.46 41.15 42.19 42.65 43.03 43.72 43.84 44.40 46.01 47.97 49.59 52.16 56.21 58.04 59.57 60.20 60.07 59.69 59.73 59.85 59.99 59.79 59.58 59.66 59.59 58.89 59.08 59.18 58.85 58.57 58.12 57.52 56.67 56.19
38.99 38.50 31.28 23.94 25.16 26.25 30.95 29.46 34.23 41.01 43.99 45.31 42.34 42.02 40.27 39.98 41.50 41.84 42.30 42.15 42.64 43.55 43.86 44.19 44.72 44.82 45.52 46.34 48.67 53.04 57.51 60.01 60.53 60.55 60.64 60.57 60.35 60.56 60.77 60.10 59.81 59.25 59.33 59.13 58.72 58.35 58.53 58.18 57.59
37.03 36.30 39.85 31.04 24.57 25.23 29.35 32.18 37.20 39.53 38.67 37.97 39.68 39.82 39.62 40.47 40.98 41.14 41.38 41.42 42.56 43.21 43.37 43.79 44.57 44.75 45.12 46.00 46.40 46.50 48.47 52.05 55.69 58.79 60.46 60.95 61.26 60.83 60.61 60.06 59.75 59.95 59.62 59.03 59.10 58.54 58.41 58.40 58.13
41.87 42.17 33.62 33.88 26.30 24.43 26.45 26.91 31.14 34.11 36.40 36.90 37.27 38.61 38.77 39.94 40.55 40.45 40.17 40.23 41.87 42.33 43.06 43.58 43.89 43.58 43.74 44.92 45.03 45.86 46.36 47.89 50.04 52.84 54.82 57.59 60.12 60.64 60.20 59.73 59.64 59.86 59.87 59.80 59.34 59.11 58.79 58.46 58.40
38.93 34.93 35.27 36.16 32.26 26.08 21.29 25.51 32.93 35.60 37.28 37.21 38.23 38.79 39.31 39.48 39.10 38.23 38.47 39.27 40.42 41.28 41.24 42.34 42.41 41.45 41.23 42.73 43.87 44.49 44.89 45.78 47.21 48.38 49.94 51.55 54.12 57.23 59.58 59.78 59.67 59.73 59.96 60.28 59.96 59.63 59.36 58.38 58.27
39.27 36.97 36.05 30.52 30.22 31.45 28.34 28.60 36.29 35.41 36.20 38.27 37.67 40.55 40.54 38.27 37.06 37.34 37.47 37.89 38.08 38.71 39.86 40.07 40.62 39.63 39.66 40.65 41.61 42.47 43.00 43.31 43.53 44.08 45.52 47.62 49.41 52.63 55.04 57.23 59.28 59.79 60.08 60.25 60.08 59.62 59.50 58.83 58.40